| time (UTC) | temp F | wind direction | speed knots | gust knots | rain 1hr in | rain 24hr in | rain mn in | humidity % | barometer mb |
| 20260504173034 | 45 | 349 | 26.9 | 33.9 | 0.00 | 0.00 | 0.00 | 57 | 1013.6 |
| 20260504171533 | 46 | 338 | 26.1 | 34.8 | 0.00 | 0.00 | 0.00 | 55 | 1013.5 |
| 20260504081530 | 53 | 68 | 3.5 | 7.8 | 0.00 | 0.00 | 0.00 | 41 | 1008.7 |
| 20260504044529 | 51 | 317 | 0.9 | 5.2 | 0.00 | 0.00 | 0.00 | 53 | 1009.5 |
| 20260504043035 | 50 | 268 | 0.0 | 2.6 | 0.00 | 0.00 | 0.00 | 54 | 1009.6 |
| 20260504041531 | 50 | 0 | 0.0 | 3.5 | 0.00 | 0.00 | 0.00 | 54 | 1009.7 |
| 20260504040046 | 49 | 281 | 0.9 | 2.6 | 0.00 | 0.00 | 0.00 | 54 | 1009.8 |
| 20260504034530 | 49 | 292 | 0.0 | 0.9 | 0.00 | 0.00 | 0.00 | 53 | 1009.9 |
| 20260504033034 | 50 | 0 | 0.9 | 1.7 | 0.00 | 0.00 | 0.00 | 53 | 1009.8 |
| 20260504031530 | 51 | 323 | 1.7 | 3.5 | 0.00 | 0.00 | 0.00 | 50 | 1009.8 |
| 20260504030029 | 53 | 279 | 0.9 | 2.6 | 0.00 | 0.00 | 0.00 | 49 | 1009.9 |
| 20260504024528 | 54 | 284 | 0.9 | 3.5 | 0.00 | 0.00 | 0.00 | 45 | 1009.9 |
| 20260504023028 | 57 | 274 | 2.6 | 3.5 | 0.00 | 0.00 | 0.00 | 41 | 1009.7 |
| 20260504021532 | 60 | 276 | 0.9 | 2.6 | 0.00 | 0.00 | 0.00 | 35 | 1009.8 |
| 20260504020031 | 61 | 0 | 0.0 | 2.6 | 0.00 | 0.00 | 0.00 | 35 | 1009.7 |
| 20260504014532 | 61 | 318 | 5.2 | 7.8 | 0.00 | 0.00 | 0.00 | 34 | 1009.8 |
| 20260504013031 | 62 | 344 | 6.1 | 8.7 | 0.00 | 0.00 | 0.00 | 33 | 1009.8 |
| 20260504011528 | 63 | 336 | 7.0 | 9.6 | 0.00 | 0.00 | 0.00 | 33 | 1010.1 |
| 20260504010030 | 64 | 8 | 7.0 | 11.3 | 0.00 | 0.00 | 0.00 | 33 | 1010.1 |
| 20260504004539 | 64 | 343 | 8.7 | 12.2 | 0.00 | 0.00 | 0.00 | 35 | 1010.2 |
| 20260504003029 | 65 | 248 | 5.2 | 14.8 | 0.00 | 0.00 | 0.00 | 37 | 1010.4 |
| 20260504001529 | 64 | 359 | 11.3 | 16.5 | 0.00 | 0.00 | 0.00 | 38 | 1010.4 |
| 20260504000029 | 65 | 346 | 10.4 | 17.4 | 0.00 | 0.00 | 0.00 | 38 | 1010.6 |
| 20260503234533 | 65 | 349 | 9.6 | 14.8 | 0.00 | 0.00 | 0.00 | 38 | 1010.8 |
| 20260503233028 | 65 | 317 | 10.4 | 16.5 | 0.00 | 0.00 | 0.00 | 39 | 1010.8 |
| 20260503231528 | 64 | 347 | 13.0 | 21.7 | 0.00 | 0.00 | 0.00 | 37 | 1010.9 |
| 20260503230030 | 65 | 300 | 11.3 | 20.9 | 0.00 | 0.00 | 0.00 | 38 | 1011.1 |
| 20260503224531 | 65 | 354 | 11.3 | 19.1 | 0.00 | 0.00 | 0.00 | 36 | 1010.9 |
| 20260503223030 | 64 | 333 | 16.5 | 22.6 | 0.00 | 0.00 | 0.00 | 35 | 1010.8 |
| 20260503221529 | 63 | 7 | 15.6 | 22.6 | 0.00 | 0.00 | 0.00 | 38 | 1011.1 |
| 20260503220028 | 63 | 10 | 18.2 | 23.5 | 0.00 | 0.00 | 0.00 | 38 | 1011.3 |
| 20260503214532 | 64 | 354 | 10.4 | 17.4 | 0.00 | 0.00 | 0.00 | 35 | 1011.7 |
| 20260503213029 | 64 | 357 | 10.4 | 17.4 | 0.00 | 0.00 | 0.00 | 34 | 1011.9 |
| 20260503211531 | 64 | 333 | 12.2 | 19.1 | 0.00 | 0.00 | 0.00 | 35 | 1012.3 |
| 20260503210029 | 63 | 209 | 8.7 | 15.6 | 0.00 | 0.00 | 0.00 | 37 | 1012.9 |
| 20260503204530 | 63 | 259 | 8.7 | 17.4 | 0.00 | 0.00 | 0.00 | 43 | 1013.5 |
| 20260503203030 | 61 | 280 | 6.1 | 13.9 | 0.00 | 0.00 | 0.00 | 45 | 1013.4 |
| 20260503201531 | 58 | 278 | 5.2 | 20.0 | 0.00 | 0.00 | 0.00 | 55 | 1013.4 |
| 20260503200032 | 63 | 269 | 7.8 | 16.5 | 0.00 | 0.00 | 0.00 | 40 | 1013.7 |
| 20260503194532 | 62 | 23 | 7.8 | 20.0 | 0.00 | 0.00 | 0.00 | 42 | 1013.7 |
| 20260503193039 | 62 | 262 | 5.2 | 10.4 | 0.00 | 0.00 | 0.00 | 41 | 1013.9 |
| 20260503191531 | 62 | 218 | 3.5 | 8.7 | 0.00 | 0.00 | 0.00 | 42 | 1014.1 |
| 20260503190032 | 61 | 358 | 1.7 | 4.3 | 0.00 | 0.00 | 0.00 | 43 | 1014.1 |
| 20260503184530 | 59 | 113 | 3.5 | 8.7 | 0.00 | 0.00 | 0.00 | 45 | 1014.4 |
| 20260503183029 | 58 | 58 | 1.7 | 6.1 | 0.00 | 0.00 | 0.00 | 52 | 1014.6 |
| 20260503181532 | 59 | 279 | 1.7 | 10.4 | 0.00 | 0.00 | 0.00 | 45 | 1015.4 |
| 20260503180030 | 60 | 207 | 1.7 | 7.8 | 0.00 | 0.00 | 0.00 | 42 | 1014.9 |
| 20260503174532 | 59 | 49 | 2.6 | 7.0 | 0.00 | 0.00 | 0.00 | 42 | 1015.0 |